When you browse on this site, cookies collect data to enhance your experience and personalize the content and advertising you see.
Visit our Privacy Policy to learn more. By continuing to use the site, you agree to this use of cookies and data.
  • In Portugal
  • List of Countries
  • For 7 days
  • Water Temperature
  • Weather Map
  • Weather Widgets
  • user-avatar
    Login

    Hourly Weather Aberdeen

    Today, 22 September, Sunday

    Time Temperature Precipitation Wind Pressure Humidity
    00:00 +12°C° 0 mm 2 mps 748 mmHg 96%
    01:00 +12°C° 0 mm 2 mps 747 mmHg 96%
    02:00 +12°C° 0 mm 2 mps 747 mmHg 96%
    03:00 +13°C° 0 mm 2 mps 746 mmHg 96%
    04:00 +13°C° 0 mm 2 mps 746 mmHg 96%
    05:00 +13°C° 0 mm 2 mps 746 mmHg 96%
    06:00 +13°C° 0 mm 2 mps 746 mmHg 96%
    07:00 +13°C° 0 mm 3 mps 745 mmHg 94%
    08:00 +13°C° 0 mm 3 mps 745 mmHg 91%
    09:00 +14°C° 0 mm 3 mps 745 mmHg 89%
    10:00 +16°C° 0 mm 3 mps 745 mmHg 89%
    11:00 +16°C° 0 mm 3 mps 745 mmHg 88%
    12:00 +16°C° 0 mm 3 mps 744 mmHg 88%
    13:00 +16°C° 0.4 mm 3 mps 744 mmHg 90%
    14:00 +16°C° 0.4 mm 3 mps 744 mmHg 91%
    15:00 +16°C° 0.4 mm 3 mps 743 mmHg 93%
    16:00 +16°C° 0.9 mm 3 mps 743 mmHg 94%
    17:00 +14°C° 0.9 mm 3 mps 744 mmHg 95%
    18:00 +14°C° 0.9 mm 3 mps 744 mmHg 97%
    19:00 +15°C° 0.7 mm 2 mps 744 mmHg 97%
    20:00 +15°C° 0.7 mm 2 mps 744 mmHg 97%
    21:00 +15°C° 0.7 mm 1 mps 744 mmHg 98%
    22:00 +14°C° 0.8 mm 1 mps 744 mmHg 98%
    23:00 +14°C° 0.8 mm 1 mps 744 mmHg 98%

    Tomorrow, 23 September, Monday

    Time Temperature Precipitation Wind Pressure Humidity
    00:00 +14°C° 0.8 mm 1 mps 744 mmHg 98%
    01:00 +14°C° 0.4 mm 1 mps 744 mmHg 98%
    02:00 +14°C° 0.4 mm 1 mps 744 mmHg 98%
    03:00 +14°C° 0.4 mm 1 mps 744 mmHg 97%
    04:00 +14°C° 0 mm 1 mps 744 mmHg 97%
    05:00 +14°C° 0 mm 2 mps 744 mmHg 97%
    06:00 +14°C° 0 mm 2 mps 744 mmHg 97%
    07:00 +14°C° 0 mm 2 mps 745 mmHg 94%
    08:00 +15°C° 0 mm 2 mps 745 mmHg 92%
    09:00 +16°C° 0 mm 2 mps 745 mmHg 89%
    10:00 +17°C° 0 mm 2 mps 745 mmHg 85%
    11:00 +17°C° 0 mm 2 mps 745 mmHg 81%
    12:00 +18°C° 0 mm 2 mps 746 mmHg 77%
    13:00 +18°C° 0.6 mm 3 mps 746 mmHg 78%
    14:00 +18°C° 0.6 mm 3 mps 745 mmHg 79%
    15:00 +18°C° 0.6 mm 4 mps 745 mmHg 80%
    16:00 +15°C° 0.3 mm 4 mps 745 mmHg 82%
    17:00 +14°C° 0.3 mm 3 mps 745 mmHg 84%
    18:00 +13°C° 0.3 mm 3 mps 745 mmHg 87%
    19:00 +13°C° 0 mm 2 mps 745 mmHg 87%
    20:00 +13°C° 0 mm 2 mps 745 mmHg 88%
    21:00 +12°C° 0 mm 2 mps 745 mmHg 88%
    22:00 +12°C° 0 mm 2 mps 744 mmHg 89%
    23:00 +13°C° 0 mm 2 mps 744 mmHg 90%

    Day after tomorrow, 24 September, Tuesday

    Time Temperature Precipitation Wind Pressure Humidity
    00:00 +12°C° 0 mm 3 mps 744 mmHg 90%
    01:00 +12°C° 0.3 mm 3 mps 743 mmHg 92%
    02:00 +12°C° 0.3 mm 4 mps 743 mmHg 95%
    03:00 +12°C° 0.3 mm 4 mps 742 mmHg 97%
    04:00 +12°C° 0.3 mm 4 mps 742 mmHg 97%
    05:00 +12°C° 0.3 mm 4 mps 742 mmHg 98%
    06:00 +13°C° 0.3 mm 4 mps 741 mmHg 98%
    07:00 +13°C° 0.2 mm 3 mps 741 mmHg 97%
    08:00 +14°C° 0.2 mm 2 mps 741 mmHg 97%
    09:00 +14°C° 0.2 mm 2 mps 741 mmHg 96%
    10:00 +15°C° 0 mm 2 mps 740 mmHg 94%
    11:00 +16°C° 0 mm 3 mps 740 mmHg 92%
    12:00 +16°C° 0 mm 3 mps 740 mmHg 91%
    13:00 +15°C° 0 mm 4 mps 740 mmHg 92%
    14:00 +15°C° 0 mm 4 mps 739 mmHg 93%
    15:00 +15°C° 0 mm 4 mps 739 mmHg 93%
    16:00 +15°C° 0.1 mm 4 mps 739 mmHg 95%
    17:00 +14°C° 0.1 mm 4 mps 739 mmHg 96%
    18:00 +14°C° 0.1 mm 4 mps 738 mmHg 97%
    19:00 +14°C° 0.2 mm 4 mps 739 mmHg 97%
    20:00 +14°C° 0.2 mm 4 mps 739 mmHg 97%
    21:00 +14°C° 0.2 mm 4 mps 739 mmHg 98%
    22:00 +14°C° 0.1 mm 4 mps 739 mmHg 98%
    23:00 +14°C° 0.1 mm 4 mps 739 mmHg 98%

    25 September, Wednesday

    Time Temperature Precipitation Wind Pressure Humidity
    00:00 +14°C° 0.1 mm 4 mps 738 mmHg 98%
    01:00 +14°C° 0.2 mm 4 mps 738 mmHg 97%
    02:00 +13°C° 0.2 mm 4 mps 738 mmHg 96%
    03:00 +13°C° 0.2 mm 4 mps 739 mmHg 96%
    04:00 +13°C° 0.1 mm 4 mps 738 mmHg 96%
    05:00 +13°C° 0.1 mm 4 mps 738 mmHg 96%
    06:00 +13°C° 0.1 mm 3 mps 738 mmHg 96%
    07:00 +13°C° 0.1 mm 4 mps 739 mmHg 95%
    08:00 +13°C° 0.1 mm 4 mps 739 mmHg 94%
    09:00 +14°C° 0.1 mm 4 mps 739 mmHg 94%
    10:00 +14°C° 0.1 mm 4 mps 740 mmHg 92%
    11:00 +14°C° 0.1 mm 4 mps 740 mmHg 90%
    12:00 +15°C° 0.1 mm 4 mps 740 mmHg 88%
    13:00 +15°C° 0.2 mm 5 mps 740 mmHg 89%
    14:00 +15°C° 0.2 mm 5 mps 740 mmHg 89%
    15:00 +15°C° 0.2 mm 5 mps 740 mmHg 89%
    16:00 +14°C° 0.1 mm 5 mps 740 mmHg 91%
    17:00 +14°C° 0.1 mm 5 mps 740 mmHg 93%
    18:00 +13°C° 0.1 mm 5 mps 740 mmHg 95%
    19:00 +13°C° 0.1 mm 4 mps 739 mmHg 95%
    20:00 +13°C° 0.1 mm 4 mps 739 mmHg 96%
    21:00 +12°C° 0.1 mm 4 mps 739 mmHg 96%
    22:00 +12°C° 0.1 mm 4 mps 738 mmHg 96%
    23:00 +13°C° 0.1 mm 5 mps 737 mmHg 96%

    26 September, Thursday

    Time Temperature Precipitation Wind Pressure Humidity
    00:00 +13°C° 0.1 mm 6 mps 737 mmHg 96%
    01:00 +13°C° 3.2 mm 6 mps 736 mmHg 96%
    02:00 +12°C° 3.2 mm 7 mps 736 mmHg 96%
    03:00 +12°C° 3.2 mm 8 mps 735 mmHg 97%
    04:00 +11°C° 0.7 mm 6 mps 735 mmHg 96%
    05:00 +12°C° 0.7 mm 4 mps 735 mmHg 95%
    06:00 +11°C° 0.7 mm 3 mps 735 mmHg 95%
    07:00 +12°C° 0 mm 3 mps 736 mmHg 91%
    08:00 +13°C° 0 mm 4 mps 736 mmHg 88%
    09:00 +13°C° 0 mm 4 mps 737 mmHg 85%
    10:00 +14°C° 0 mm 4 mps 737 mmHg 82%
    11:00 +14°C° 0 mm 4 mps 737 mmHg 79%
    12:00 +15°C° 0 mm 4 mps 737 mmHg 76%
    13:00 +15°C° 0.2 mm 4 mps 737 mmHg 76%
    14:00 +15°C° 0.2 mm 4 mps 737 mmHg 77%
    15:00 +15°C° 0.2 mm 4 mps 737 mmHg 78%
    16:00 +14°C° 0.3 mm 3 mps 737 mmHg 82%
    17:00 +13°C° 0.3 mm 3 mps 737 mmHg 85%
    18:00 +13°C° 0.3 mm 2 mps 737 mmHg 89%
    19:00 +13°C° 0.2 mm 2 mps 738 mmHg 89%
    20:00 +13°C° 0.2 mm 2 mps 738 mmHg 90%
    21:00 +13°C° 0.2 mm 2 mps 738 mmHg 90%
    22:00 +12°C° 0 mm 2 mps 738 mmHg 91%
    23:00 +12°C° 0 mm 2 mps 738 mmHg 92%

    27 September, Friday

    Time Temperature Precipitation Wind Pressure Humidity
    00:00 +11°C° 0 mm 1 mps 738 mmHg 92%
    01:00 +11°C° 0 mm 1 mps 738 mmHg 92%
    02:00 +11°C° 0 mm 1 mps 738 mmHg 92%
    03:00 +11°C° 0 mm 1 mps 738 mmHg 92%
    04:00 +11°C° 0 mm 1 mps 738 mmHg 93%
    05:00 +10°C° 0 mm 1 mps 738 mmHg 93%
    06:00 +10°C° 0 mm 1 mps 738 mmHg 93%
    07:00 +11°C° 0 mm 1 mps 738 mmHg 91%
    08:00 +12°C° 0 mm 2 mps 738 mmHg 88%
    09:00 +13°C° 0 mm 2 mps 738 mmHg 86%
    10:00 +13°C° 0.2 mm 2 mps 738 mmHg 85%
    11:00 +13°C° 0.2 mm 3 mps 738 mmHg 84%
    12:00 +13°C° 0.2 mm 3 mps 738 mmHg 83%
    13:00 +13°C° 0.2 mm 3 mps 738 mmHg 85%
    14:00 +12°C° 0.2 mm 4 mps 738 mmHg 87%
    15:00 +12°C° 0.2 mm 4 mps 738 mmHg 88%
    16:00 +12°C° 0.3 mm 4 mps 738 mmHg 89%
    17:00 +12°C° 0.3 mm 4 mps 737 mmHg 90%
    18:00 +12°C° 0.3 mm 4 mps 737 mmHg 91%
    19:00 +12°C° 0.4 mm 5 mps 737 mmHg 91%
    20:00 +11°C° 0.4 mm 6 mps 737 mmHg 92%
    21:00 +10°C° 0.4 mm 6 mps 736 mmHg 92%
    22:00 +10°C° 2.1 mm 6 mps 736 mmHg 93%
    23:00 +10°C° 2.1 mm 5 mps 736 mmHg 93%
    Show more